• In Netherlands
  • List of Countries
  • For 7 days
  • Water Temperature
  • Satellite Maps
  • Weather Map
  • Weather Widgets
  • user-avatar
    Login

    Hourly Weather Escaldes-Engordany

    Today, 26 June, Monday

    Time Temperature Precipitation Wind Pressure Humidity
    00:00 +14°C° 0 mm 1 mps 639 mmHg 90%
    01:00 +14°C° 0.1 mm 1 mps 639 mmHg 88%
    02:00 +13°C° 0.1 mm 1 mps 638 mmHg 87%
    03:00 +13°C° 0.1 mm 1 mps 638 mmHg 86%
    04:00 +14°C° 0 mm 1 mps 638 mmHg 79%
    05:00 +15°C° 0 mm 1 mps 638 mmHg 73%
    06:00 +16°C° 0 mm 2 mps 639 mmHg 66%
    07:00 +18°C° 0 mm 2 mps 639 mmHg 58%
    08:00 +20°C° 0 mm 2 mps 639 mmHg 50%
    09:00 +23°C° 0 mm 2 mps 640 mmHg 42%
    10:00 +22°C° 0.1 mm 3 mps 640 mmHg 41%
    11:00 +24°C° 0.1 mm 3 mps 640 mmHg 40%
    12:00 +25°C° 0.1 mm 4 mps 640 mmHg 39%
    13:00 +24°C° 0.4 mm 3 mps 640 mmHg 43%
    14:00 +22°C° 0.4 mm 3 mps 639 mmHg 47%
    15:00 +22°C° 0.4 mm 3 mps 639 mmHg 52%
    16:00 +21°C° 0.5 mm 3 mps 639 mmHg 55%
    17:00 +21°C° 0.5 mm 2 mps 638 mmHg 58%
    18:00 +20°C° 0.5 mm 2 mps 638 mmHg 61%
    19:00 +19°C° 0.2 mm 1 mps 638 mmHg 68%
    20:00 +15°C° 0.2 mm 1 mps 637 mmHg 76%
    21:00 +11°C° 0.2 mm 0 mps 636 mmHg 84%
    22:00 +12°C° 0 mm 1 mps 636 mmHg 84%
    23:00 +12°C° 0 mm 1 mps 636 mmHg 85%

    Tomorrow, 27 June, Tuesday

    Time Temperature Precipitation Wind Pressure Humidity
    00:00 +11°C° 0 mm 1 mps 636 mmHg 85%
    01:00 +11°C° 0 mm 1 mps 636 mmHg 84%
    02:00 +11°C° 0 mm 1 mps 636 mmHg 82%
    03:00 +11°C° 0 mm 1 mps 636 mmHg 81%
    04:00 +13°C° 0 mm 1 mps 636 mmHg 77%
    05:00 +14°C° 0 mm 1 mps 637 mmHg 72%
    06:00 +16°C° 0 mm 1 mps 637 mmHg 68%
    07:00 +18°C° 0 mm 2 mps 638 mmHg 60%
    08:00 +20°C° 0 mm 2 mps 639 mmHg 52%
    09:00 +22°C° 0 mm 3 mps 639 mmHg 44%
    10:00 +24°C° 0 mm 3 mps 639 mmHg 40%
    11:00 +25°C° 0 mm 4 mps 639 mmHg 37%
    12:00 +26°C° 0 mm 4 mps 639 mmHg 34%
    13:00 +26°C° 0.3 mm 4 mps 638 mmHg 39%
    14:00 +25°C° 0.3 mm 4 mps 638 mmHg 44%
    15:00 +23°C° 0.3 mm 4 mps 637 mmHg 50%
    16:00 +22°C° 0.9 mm 4 mps 636 mmHg 55%
    17:00 +21°C° 0.9 mm 3 mps 636 mmHg 61%
    18:00 +19°C° 0.9 mm 2 mps 635 mmHg 66%
    19:00 +17°C° 0.8 mm 2 mps 635 mmHg 72%
    20:00 +15°C° 0.8 mm 1 mps 634 mmHg 77%
    21:00 +13°C° 0.8 mm 1 mps 634 mmHg 82%
    22:00 +12°C° 0.1 mm 1 mps 634 mmHg 84%
    23:00 +11°C° 0.1 mm 1 mps 633 mmHg 86%

    Day after tomorrow, 28 June, Wednesday

    Time Temperature Precipitation Wind Pressure Humidity
    00:00 +11°C° 0.1 mm 1 mps 633 mmHg 88%
    01:00 +10°C° 0 mm 1 mps 633 mmHg 88%
    02:00 +10°C° 0 mm 1 mps 633 mmHg 88%
    03:00 +10°C° 0 mm 1 mps 632 mmHg 88%
    04:00 +11°C° 0 mm 1 mps 633 mmHg 86%
    05:00 +12°C° 0 mm 1 mps 633 mmHg 83%
    06:00 +13°C° 0 mm 1 mps 634 mmHg 80%
    07:00 +14°C° 0.2 mm 2 mps 634 mmHg 76%
    08:00 +14°C° 0.2 mm 2 mps 634 mmHg 72%
    09:00 +14°C° 0.2 mm 3 mps 635 mmHg 68%
    10:00 +16°C° 0.4 mm 3 mps 634 mmHg 66%
    11:00 +16°C° 0.4 mm 3 mps 634 mmHg 63%
    12:00 +16°C° 0.4 mm 3 mps 634 mmHg 60%
    13:00 +17°C° 0.6 mm 3 mps 634 mmHg 60%
    14:00 +17°C° 0.6 mm 4 mps 634 mmHg 61%
    15:00 +17°C° 0.6 mm 4 mps 634 mmHg 61%
    16:00 +15°C° 0.6 mm 4 mps 634 mmHg 62%
    17:00 +16°C° 0.6 mm 3 mps 634 mmHg 63%
    18:00 +14°C° 0.6 mm 3 mps 633 mmHg 65%
    19:00 +12°C° 0.4 mm 3 mps 633 mmHg 70%
    20:00 +12°C° 0.4 mm 2 mps 633 mmHg 75%
    21:00 +9°C° 0.4 mm 2 mps 633 mmHg 80%
    22:00 +8°C° 0.1 mm 2 mps 633 mmHg 82%
    23:00 +8°C° 0.1 mm 2 mps 633 mmHg 84%

    29 June, Thursday

    Time Temperature Precipitation Wind Pressure Humidity
    00:00 +7°C° 0.1 mm 2 mps 633 mmHg 87%
    01:00 +7°C° 0 mm 2 mps 633 mmHg 88%
    02:00 +6°C° 0 mm 2 mps 633 mmHg 89%
    03:00 +6°C° 0 mm 1 mps 633 mmHg 91%
    04:00 +7°C° 0 mm 1 mps 633 mmHg 88%
    05:00 +7°C° 0 mm 2 mps 634 mmHg 85%
    06:00 +8°C° 0 mm 2 mps 634 mmHg 81%
    07:00 +10°C° 0 mm 2 mps 635 mmHg 73%
    08:00 +12°C° 0 mm 2 mps 636 mmHg 64%
    09:00 +14°C° 0 mm 2 mps 637 mmHg 55%
    10:00 +14°C° 0.2 mm 2 mps 637 mmHg 54%
    11:00 +14°C° 0.2 mm 3 mps 637 mmHg 54%
    12:00 +14°C° 0.2 mm 3 mps 637 mmHg 53%
    13:00 +14°C° 0.5 mm 4 mps 637 mmHg 51%
    14:00 +14°C° 0.5 mm 4 mps 636 mmHg 50%
    15:00 +14°C° 0.5 mm 4 mps 636 mmHg 49%
    16:00 +14°C° 0.5 mm 4 mps 636 mmHg 53%
    17:00 +13°C° 0.5 mm 3 mps 636 mmHg 56%
    18:00 +12°C° 0.5 mm 3 mps 636 mmHg 60%
    19:00 +9°C° 0.2 mm 2 mps 636 mmHg 68%
    20:00 +7°C° 0.2 mm 2 mps 635 mmHg 75%
    21:00 +6°C° 0.2 mm 1 mps 635 mmHg 83%
    22:00 +5°C° 0 mm 1 mps 635 mmHg 85%
    23:00 +5°C° 0 mm 1 mps 634 mmHg 86%

    30 June, Friday

    Time Temperature Precipitation Wind Pressure Humidity
    00:00 +4°C° 0 mm 1 mps 634 mmHg 88%
    01:00 +3°C° 0 mm 1 mps 634 mmHg 89%
    02:00 +3°C° 0 mm 1 mps 634 mmHg 91%
    03:00 +2°C° 0 mm 0 mps 634 mmHg 92%
    04:00 +4°C° 0 mm 1 mps 635 mmHg 87%
    05:00 +6°C° 0 mm 1 mps 635 mmHg 82%
    06:00 +8°C° 0 mm 1 mps 636 mmHg 77%
    07:00 +9°C° 0 mm 2 mps 637 mmHg 64%
    08:00 +12°C° 0 mm 2 mps 638 mmHg 52%
    09:00 +13°C° 0 mm 3 mps 639 mmHg 39%
    10:00 +14°C° 0 mm 3 mps 639 mmHg 36%
    11:00 +16°C° 0 mm 3 mps 639 mmHg 33%
    12:00 +17°C° 0 mm 4 mps 640 mmHg 30%
    13:00 +17°C° 0.1 mm 3 mps 640 mmHg 32%
    14:00 +17°C° 0.1 mm 3 mps 639 mmHg 35%
    15:00 +17°C° 0.1 mm 3 mps 639 mmHg 38%
    16:00 +16°C° 0.2 mm 3 mps 639 mmHg 46%
    17:00 +14°C° 0.2 mm 3 mps 639 mmHg 55%
    18:00 +13°C° 0.2 mm 2 mps 639 mmHg 63%
    19:00 +12°C° 0.2 mm 2 mps 639 mmHg 69%
    20:00 +9°C° 0.2 mm 2 mps 639 mmHg 76%
    21:00 +8°C° 0.2 mm 2 mps 639 mmHg 82%
    22:00 +7°C° 0.1 mm 2 mps 639 mmHg 84%
    23:00 +7°C° 0.1 mm 2 mps 639 mmHg 86%

    1 July, Saturday

    Time Temperature Precipitation Wind Pressure Humidity
    00:00 +6°C° 0.1 mm 2 mps 638 mmHg 88%
    01:00 +6°C° 0 mm 2 mps 638 mmHg 89%
    02:00 +6°C° 0 mm 2 mps 638 mmHg 89%
    03:00 +5°C° 0 mm 2 mps 638 mmHg 89%
    04:00 +6°C° 0 mm 2 mps 639 mmHg 86%
    05:00 +7°C° 0 mm 2 mps 639 mmHg 83%
    06:00 +8°C° 0 mm 2 mps 640 mmHg 79%
    07:00 +10°C° 0 mm 3 mps 641 mmHg 70%
    08:00 +11°C° 0 mm 3 mps 642 mmHg 61%
    09:00 +13°C° 0 mm 3 mps 642 mmHg 52%
    10:00 +14°C° 0 mm 3 mps 643 mmHg 50%
    11:00 +16°C° 0 mm 3 mps 643 mmHg 48%
    12:00 +17°C° 0 mm 3 mps 644 mmHg 46%
    13:00 +16°C° 0 mm 3 mps 644 mmHg 47%
    14:00 +16°C° 0 mm 3 mps 644 mmHg 48%
    15:00 +16°C° 0 mm 3 mps 644 mmHg 49%
    16:00 +16°C° 0 mm 3 mps 644 mmHg 54%
    17:00 +14°C° 0 mm 3 mps 644 mmHg 58%
    18:00 +13°C° 0 mm 3 mps 643 mmHg 63%
    19:00 +11°C° 0.1 mm 3 mps 643 mmHg 70%
    20:00 +9°C° 0.1 mm 3 mps 643 mmHg 77%
    21:00 +8°C° 0.1 mm 2 mps 643 mmHg 84%
    22:00 +7°C° 0 mm 3 mps 643 mmHg 85%
    23:00 +7°C° 0 mm 3 mps 643 mmHg 85%
    Show more